Preview of NWS' New Version of Forecast
This preview is not operational and should not be used for support decisions.
Latest weather observations around

Louisville, Bowman Field Airport (KLOU)

Using International System of Units (Switch to English Units)
Date/ Time (EST) Wind (kph) Vis. (km) Weather Sky Cond. Temp (°C) Rel. Humidity Wind Chill (°C) Heat Index (°C) Pressure Precip. (cm)
Air Dwpt 6 hour Altimeter (hPa) Sea level (hPa) 1 hr 3 hr 6 hr
Max Min
Feb 22 02:53 N 11 16.09 Clear CLR 5 -2     62% 2   1026.1 1026.2      
Feb 22 01:53 NE 9 16.09 Cloudy OVC110 6 -2     59% 4   1024.7 1024.8      
Feb 22 00:53 NE 9 16.09 Cloudy OVC110 6 -2     59% 4   1024.7 1025      
Feb 21 23:53 NNE 8 16.09 Cloudy OVC100 6 -1     62% 4   1025.1 1025.3      
Feb 21 22:53 NNE 5 16.09 Partly Cloudy SCT120 6 -2     57% 5   1025.4 1025.5      
Feb 21 21:53 NE 8 16.09 Mostly Clear FEW120 6 -1     60% 5   1025.4 1025.5      
Feb 21 20:53 NE 5 16.09 Partly Cloudy SCT120 6 1     68% 5   1025.4 1025.6      
Feb 21 19:53 Calm 16.09 Clear CLR 6 0     65%     1025.4 1025.6      
Feb 21 18:53 Calm 16.09 Mostly Clear FEW120 7 -1     60%     1023.7 1024.1      
Feb 21 17:53 Calm 16.09 Mostly Clear FEW120 8 -1     53%     1024.1 1024.2      
Feb 21 16:53 Calm 16.09 Clear CLR 8 -1     53%     1023.7 1023.9      
Feb 21 15:53 Calm 16.09 Clear CLR 7 -2     53%     1023.4 1023.6      
Feb 21 14:53 N 5 16.09 Clear CLR 7 -2     53% 6   1023.7 1023.8      
Feb 21 13:53 WNW 5 16.09 Clear CLR 7 -2     53% 6   1024.1 1024.1      
Feb 21 12:53 WNW 8 16.09 Clear CLR 7 -1     58% 5   1023.7 1024.1      
Feb 21 11:53 Calm 16.09 Clear CLR 6 -1     62%     1024.1 1024.4      
Feb 21 10:53 Calm 16.09 Clear CLR 6 -1     62%     1024.4 1024.5      
Feb 21 09:53 NNW 9 16.09 Clear CLR 5 -1     67% 3   1024.1 1024.3      
Feb 21 08:53 Calm 16.09 Clear CLR 2 1     92%     1023.7 1023.9      
Feb 21 08:03 Calm 16.09 Clear CLR -1 -1     96%     1022.7        
Feb 21 07:56 Calm 2.41 Clear CLR -1 -2     92%     1022.7        
Feb 21 07:53 Calm 9.66 Fog/Mist CLR -1 -1     96%     1022.7 1022.7      
Feb 21 06:53 Calm 8.05 Fog/Mist CLR -1 -2     92%     1021.7 1021.7      
Feb 21 06:35 NW 5 4.83 Fog/Mist CLR -1 -1     96% -2   1021.3        
Feb 21 06:23 Calm 2.82 Fog/Mist CLR 0 -1     92%     1021.3        
Feb 21 06:07 Calm 6.44 Fog/Mist CLR -1 -2     92%     1021        
Feb 21 06:00 Calm 4.02 Fog/Mist CLR -1 -1     96%     1020.7        
Feb 21 05:53 Calm 1.21 Fog/Mist CLR -1 -1     96%     1020.3 1020.5      
Feb 21 05:21 NW 5 2.82 Clear   -1 -1     96% -2   1020        
Feb 21 04:53 NW 5 11.27 Clear   1 0     96% -1   1020 1020.1      
Feb 21 03:53 Calm 16.09 Clear CLR 3 1     85%     1019.3 1019.6      
Feb 21 02:53 Calm 16.09 Mostly Cloudy BKN033 2 1     89%     1019.3 1019.5      
Feb 21 01:53 WNW 8 16.09 Clear CLR 4 1     82% 2   1018.6 1018.8      
Feb 21 00:53 Calm 16.09 Mostly Clear FEW029 4 1     82%     1018 1018.2      
Feb 20 23:53   16.09 Clear CLR 6 2     79%     1016.9 1017      
Feb 20 23:37   16.09 Partly Cloudy SCT022 6 2     76%     1016.6        
Feb 20 22:53   16.09 Cloudy OVC021 7 3     74%     1015.9 1016.1      
Feb 20 21:53 W 18 16.09 Clear   8 4     79% 5   1014.6 1014.6      
Feb 20 20:53 W 17 16.09 Cloudy FEW012 OVC017 9 6     83% 6   1013.6 1013.5      
Feb 20 19:53 WSW 18 16.09 Cloudy BKN014 OVC040 10 8     89%     1012.2 1012.4      
Feb 20 19:47 SW 17 16.09 Cloudy BKN012 OVC038 10 8     87%     1012.2        
Feb 20 19:43 WSW 13 16.09 Cloudy SCT012 SCT016 OVC038 10 8     89%     1012.2        
Feb 20 19:16   14.48 Cloudy SCT008 BKN013 OVC027 11 9     89%     1011.9        
Feb 20 19:07 WSW 22 16.09 Cloudy BKN006 OVC013 11 9     89%     1011.5        
Feb 20 18:53 W 21 11.27 Cloudy BKN005 OVC010 11 10     96%     1011.2 1011.3     1
Feb 20 18:36 WSW 15 4.83 Fog/Mist OVC005 11 10     93%     1010.8        
Feb 20 18:30 WSW 11 3.22 Fog/Mist OVC007 11 10     93%     1010.5        
Feb 20 17:53 S 5 2.01 Fog/Mist OVC009 10 9     93%     1009.8 1010 0    
Feb 20 17:44 S 8 2.82 Light Rain and Fog/Mist OVC009 10 9     93%     1009.8   0    
Feb 20 17:13 Calm 2.41 Light Rain and Fog/Mist BKN006 OVC011 9 9     97%     1009.5   0    
Feb 20 17:06 Calm 2.41 Light Rain and Fog/Mist BKN009 OVC012 9 9     97%     1009.5   0    
Feb 20 16:53 S 5 2.01 Light Rain and Fog/Mist OVC011 9 9     97% 9   1009.2 1009.5 0    
Feb 20 16:29 S 5 2.01 Light Rain and Fog/Mist OVC011 9 8     93% 9   1009.2   0    
Feb 20 16:14 Calm 1.61 Light Rain and Fog/Mist BKN008 OVC012 9 8     93%     1008.8   0    
Feb 20 15:53 S 5 2.01 Light Rain and Fog/Mist OVC006 9 8     96% 8   1008.8 1008.8 0 0  
Feb 20 15:44 Calm 2.82 Light Rain and Fog/Mist OVC004 9 8     93%     1008.8   0    
Feb 20 15:38 Calm 6.44 Light Rain and Fog/Mist OVC004 9 8     93%     1008.5   0    
Feb 20 15:23 Calm 6.44 Light Rain and Fog/Mist BKN006 OVC011 9 8     96%     1008.1   0    
Feb 20 15:00 SSE 9 8.05 Light Rain and Fog/Mist BKN008 OVC013 9 8     93% 7   1008.1   0    
Feb 20 14:53 SE 9 14.48 Light Rain BKN007 BKN011 OVC017 9 8     93% 7   1008.1 1008.3 0    
Feb 20 14:47 SE 9 9.66 Light Rain and Fog/Mist SCT007 OVC015 9 8     93% 8   1008.5   0    
Feb 20 14:41 SE 11 4.83 Light Rain and Fog/Mist BKN007 OVC014 9 8     93% 7   1008.5   0    
Feb 20 14:26 S 8 2.82 Heavy Rain and Fog/Mist OVC008 8 7     93% 7   1009.2   0    
Feb 20 13:53 SSE 9 9.66 Rain and Fog/Mist OVC009 8 7     90% 7   1009.5 1009.7 0    
Feb 20 13:09 SSE 15 16.09 Cloudy OVC009 8 6     89% 5   1010.2        
Feb 20 12:53 SE 13 16.09 Cloudy OVC010 8 6     86% 6   1010.2 1010.3     0
Feb 20 12:03 ESE 13 16.09 Cloudy BKN013 OVC022 7 4     85% 4   1012.2        
Feb 20 11:53 SE 15 16.09 Cloudy FEW010 SCT016 OVC021 6 4     89% 3   1012.5 1012.6      
Feb 20 11:34 SE 13 16.09 Cloudy FEW008 OVC024 6 4     89% 3   1012.9        
Feb 20 11:00 SE 17 14.48 Cloudy BKN009 OVC032 6 4     89% 3   1012.9        
Feb 20 10:53 SE 15 12.87 Cloudy SCT009 OVC032 6 4     89% 3   1013.2 1013.5      
Feb 20 09:53 SE 9 16.09 Cloudy FEW008 OVC034 5 3     89% 3   1013.9 1014.2 0 0  
Feb 20 09:18 SSE 15 14.48 Light Rain SCT007 OVC036 4 3     89% 1   1014.6   0    
Feb 20 09:06   16.09 Cloudy BKN007 OVC036 4 3     93%     1014.6        
Feb 20 08:53 11 16.09 Cloudy BKN008 OVC042 4 3     93% 1   1014.6 1014.9      
Feb 20 08:50 SE 8 16.09 Cloudy BKN008 OVC042 4 3     93% 2   1014.6        
Feb 20 08:32 SE 9 16.09 Cloudy FEW007 OVC044 4 2     89% 2   1014.2        
Feb 20 07:53 ESE 18 16.09 Cloudy FEW029 SCT048 OVC110 4 2     89% 0   1013.6 1014 0    
Feb 20 07:22 E 18 16.09 Mostly Cloudy FEW009 BKN050 BKN120 3 2     89% -1   1013.9   0    
Feb 20 06:53 E 21 16.09 Light Rain FEW060 SCT090 OVC110 3 2     89% -1   1013.9 1014 1   4
Feb 20 06:11 E 24 4.83 Heavy Rain and Fog/Mist BKN055 OVC070 3 2     92% -2   1015.9   0    
Feb 20 06:00   4.02 Heavy Rain and Fog/Mist BKN047 OVC055 3 2     92%     1016.3   0    
Feb 20 05:53 E 17 4.83 Heavy Rain and Fog/Mist BKN049 OVC065 3 2     92% -1   1017.6 1017.7 1    
Feb 20 05:29 ENE 13 4.02 Heavy Rain and Fog/Mist OVC044 2 1     92% -1   1018   1    
Feb 20 05:14 ENE 17 4.02 Heavy Rain and Fog/Mist FEW009 OVC036 2 1     92% -3   1018   1    
Feb 20 05:05 N 15 3.22 Heavy Rain and Fog/Mist FEW008 OVC030 2 1     92% -2   1018.3   0    
Feb 20 04:53 NNW 18 6.44 Rain and Fog/Mist SCT008 SCT025 OVC032 2 0     88% -3   1017.3 1017.7 1    
Feb 20 04:43 NE 21 4.02 Heavy Rain and Fog/Mist SCT008 OVC030 1 0     92% -4   1015.9   1    
Feb 20 04:28 NNE 17 4.02 Heavy Rain and Fog/Mist BKN008 OVC028 1 0     92% -3   1016.9   0    
Feb 20 04:18 N 13 4.83 Rain and Fog/Mist OVC007 1 0     92% -3   1016.9   0    
Feb 20 04:02 NNE 13 3.22 Heavy Rain and Fog/Mist OVC007 1 0     96% -3   1016.9   0    
Feb 20 03:53 NE 13 2.82 Heavy Rain and Fog/Mist BKN007 OVC019 1 -1     92% -3   1017.6 1017.9 1 1  
Feb 20 03:44 ENE 15 3.22 Heavy Rain and Fog/Mist OVC007 1 -1     92% -4   1017.6   1    
Feb 20 03:37 NE 15 4.83 Rain and Fog/Mist OVC007 1 -1     92% -4   1017.6   1    
Feb 20 03:27 9 4.02 Rain and Fog/Mist OVC007 1 -1     92% -2   1018.3   0    
Feb 20 03:11 ENE 15 2.82 Heavy Rain and Fog/Mist OVC007 1 -1     92% -4   1018.3   0    
Feb 20 03:08 NE 15 3.22 Heavy Rain and Fog/Mist OVC007 1 -1     92% -4   1018.6   0    
Feb 20 02:53 NE 15 6.44 Light Rain and Fog/Mist BKN007 OVC028 1 -1     92% -4   1018.6 1019 0    
Feb 20 02:43 NE 15 4.02 Rain and Fog/Mist BKN007 BKN021 OVC028 1 -1     92% -4   1019   0    
Feb 20 02:28 ENE 18 4.02 Heavy Rain and Fog/Mist SCT009 SCT021 OVC030 1 -1     92% -4   1019.3   0    
Feb 20 02:22 ENE 24 4.83 Rain and Fog/Mist SCT009 BKN021 OVC032 1 -1     88% -5   1019.3   0    
Feb 20 01:59 NE 21 4.83 Light Rain and Fog/Mist FEW009 OVC039 1 -1     88% -5   1020.3   0    
Feb 20 01:53 NE 21 4.83 Light Rain and Fog/Mist OVC039 1 -1     88% -5   1020.3 1020.8 0    
Feb 20 00:53 NE 15 9.66 Light Rain and Fog/Mist OVC050 1 -2     85% -4   1022.7 1023.2 0   0
Feb 19 23:53 ENE 18 11.27 Light Rain OVC060 1 -3     75% -4   1024.4 1024.9 0    
Feb 19 22:53 ENE 15 16.09 Clear   2 -4     66% -2   1025.7 1026.1 0    
Feb 19 21:53 E 13 16.09 Cloudy BKN070 OVC090 2 -5     59% -1   1028.1 1028.4      
Feb 19 20:53 ENE 17 16.09 Cloudy OVC100 2 -5     61% -3   1026.4 1026.7      
Feb 19 19:53 ENE 17 16.09 Partly Cloudy SCT120 2 -5     59% -2   1029.1 1029.4      
Feb 19 18:53 ENE 13 16.09 Clear CLR 2 -6     56% -1   1030.5 1030.9      
Feb 19 17:53 E 21 16.09 Clear CLR 2 -6     56% -3   1029.8 1030.5      
Feb 19 16:53 ENE 17 16.09 Clear CLR 3 -6     52% -1   1031.2 1031.6      
Feb 19 15:53 E 22 16.09 Clear CLR 3 -7     48% -2   1031.5 1031.9      
Feb 19 14:53 ENE 22 16.09 Clear CLR 3 -7     48% -2   1032.2 1032.6      
Feb 19 13:53 NE 17 16.09 Clear CLR 3 -7     48% -1   1032.9 1033.3      
Feb 19 12:53 ENE 17 16.09 Clear CLR 2 -7     52% -3   1034.2 1034.7      
Feb 19 11:53 ENE 21 16.09 Clear CLR 1 -8     51% -4   1035.6 1035.8      
Feb 19 10:53 ENE 15 16.09 Clear CLR 1 -8     53% -4   1036.2 1036.8      
Feb 19 09:53 E 15 16.09 Clear CLR -1 -7     61% -5   1036.9 1037.6      
Feb 19 08:53 NE 15 16.09 Clear CLR -2 -8     63% -6   1037.6 1038.2      
Feb 19 07:53 ENE 13 16.09 Clear CLR -3 -7     72% -7   1036.6 1037.3      
Feb 19 06:53 ENE 13 16.09 Clear   -3 -8     68% -7   1035.9 1036.3      
Feb 19 05:53 NE 9 16.09 Clear CLR -3 -7     74% -7   1035.6 1036.1      
Feb 19 04:53 NE 8 16.09 Clear CLR -4 -7     81% -7   1035.2 1035.8      
Feb 19 03:53 Calm 14.48 Clear CLR -4 -6     88%     1035.6 1036      
Feb 19 02:53 Calm 16.09 Clear CLR -4 -6     85%     1034.9 1035.6      
May 15 07:53 Calm 16.09 Mostly Clear FEW065 24 20     79%   24 1014.6 1013.8      
May 15 04:53 SW 5 16.09 Clear CLR 24 19     76%   24 1012.9 1012.2      
May 14 19:53 SSW 13 16.09 Mostly Clear FEW070 30 18     50%   31 1011.9 1011.3      
May 14 18:53 SSW 17 16.09 Mostly Clear FEW065 31 18     45%   32 1012.2 1011.7      
May 14 12:53 WNW 18 16.09 Mostly Clear FEW055 31 19     50%   32 1016.6 1015.8      
May 14 11:53 NW 17 16.09 Partly Cloudy SCT065 30 19     51%   31 1016.9 1016.3      
May 14 00:53 S 9 16.09 Clear CLR 23 19     76%   24 1015.6 1014.9      
May 12 16:53 WSW 13 16.09 Clear   31 18     48%   32 1017.3 1016.6      
May 12 11:53 SW 15 16.09 Clear CLR 28 18     53%   29 1019 1018.5      
May 12 07:53 SSW 8 16.09 Clear CLR 23 17     68%   23 1018.3 1017.6      
May 12 04:53 S 11 16.09 Clear CLR 22 16     70%   22 1016.6 1016.1      
May 12 03:53 S 11 16.09 Clear CLR 22 16     68%   22 1016.6 1016      
May 12 01:53 SSW 11 16.09 Clear CLR 23 17     66%   23 1016.3 1015.7      
May 11 23:53 S 5 16.09 Clear CLR 24 17     64%   24 1015.9 1015.4      
May 11 16:53 SW 21 16.09 Clear CLR 31 16     42%   31 1014.6 1013.8      
Jun 12 07:53 S 8 16.09 Mostly Cloudy BKN070 24 21     79%   25 1020.3 1019.5      
Jun 12 05:53 Calm 16.09 Partly Cloudy SCT050 SCT070 22 19     82%   23 1019.7 1018.9      
Jun 11 17:53 S 15 16.09 Mostly Clear FEW070 30 17     46%   30 1018.6 1018.1      
Jun 11 06:53 Calm 16.09 Clear CLR 19 16     81%     1020 1019.4      
Jun 09 03:53 Calm 16.09 Clear CLR 14 12     89%     1012.9 1012.6      
Jun 09 00:53 Calm 16.09 Clear CLR 16 12     80%     1013.2 1013      
Jun 08 15:53 5 16.09 Partly Cloudy SCT047 23 12     48%   23 1014.2 1013.9      
Jun 08 14:53 Calm 16.09 Cloudy OVC060 22 11     51%   21 1014.9 1014.7      
Jun 06 09:53 ENE 13 16.09 Clear CLR 20 14     68%     1013.6 1013.2      
Jun 05 20:07 SSW 11 16.09 Clear CLR 20 18     90%     1008.1        
Notice The following observation data may not be complete
Jun 05 19:19 8 8.05 Thunderstorms and Rain SCT026 BKN039 OVC100   17      %     1006.4   1